Miscellaneous Local Product
Issued by NWS Hastings, NE

Home | Current Version | Previous Version | Graphics & Text | Print | Product List | Glossary On
Versions: 1 2 3 4 5 6 7 8 9 10 11 12 13 14 15 16 17 18 19 20 21 22 23 24 25 26 27 28 29 30 31 32 33 34 35 36 37 38 39 40 41 42 43 44 45 46 47 48 49 50
000
AXUS43 KGID 191002
MISGRI

GID CWA HOURLY WEATHER ROUNDUP
NATIONAL WEATHER SERVICE HASTINGS NE
400 AM CST FRI DEC 19 2014

NOTE: "FAIR" INDICATES FEW OR NO CLOUDS BELOW 12,000 FEET WITH NO
SIGNIFICANT WEATHER AND/OR OBSTRUCTIONS TO VISIBILITY.

...SOUTH CENTRAL NEBRASKA...

CITY           SKY/WX    TMP DP  RH WIND       PRES   REMARKS
GRAND ISLAND   CLOUDY    29  27  92 SW7       30.17S WCI  22
HASTINGS       CLOUDY    31  26  82 SW7       30.15F WCI  24
KEARNEY        CLOUDY    28  27  93 SW9       30.15F WCI  20
ORD            NOT AVBL
YORK           CLOUDY    30  28  93 SW6       30.19S WCI  24
AURORA         CLOUDY    31  28  92 SW6       30.17S WCI  25
LEXINGTON      CLOUDY    28  27  94 SW8       30.13S FOG     WCI  20
HOLDREGE       CLOUDY    29  28  93 SW6       30.14S FOG     WCI  23
HEBRON         CLOUDY    30  27  88 S7        30.21F FOG     WCI  23

...NEBRASKA PANHANDLE...

CITY           SKY/WX    TMP DP  RH WIND       PRES   REMARKS
CHADRON        CLEAR     11   8  88 SW6       30.04F WCI   1
ALLIANCE       PTCLDY     3   0  87 W6        30.04S WCI  -8
SCOTTSBLUFF    PTCLDY     8   5  87 N6        30.05F WCI  -2
SIDNEY         CLEAR     20  15  81 W7        30.06F WCI  11

...WESTERN AND NORTH CENTRAL NEBRASKA...

CITY           SKY/WX    TMP DP  RH WIND       PRES   REMARKS
VALENTINE      CLEAR     12   8  84 SW9       30.05S WCI   0
AINSWORTH      PTCLDY    15  14  93 SW3       30.06S
ONEILL         CLOUDY    28  28 100 SW8       30.10F FOG     WCI  19
BROKEN BOW     FOG       25  24  96 SW7       30.09F VSB 3/4 WCI  17
IMPERIAL       CLEAR     14  10  84 W3        30.09F
NORTH PLATTE   PTCLDY    16  10  77 CALM      30.09F HAZE
MCCOOK         FOG       21  20  96 S5        30.12F VSB 1/4 WCI  15

...EASTERN NEBRASKA...

CITY           SKY/WX    TMP DP  RH WIND       PRES   REMARKS
NORFOLK        CLOUDY    30  26  85 SW9       30.16S WCI  22
SO SIOUX CITY  CLOUDY    31  28  89 SE5       30.20F WCI  26
TEKAMAH        CLOUDY    31  28  89 S8        30.22F FOG     WCI  23
COLUMBUS       CLOUDY    30  25  80 SW6       30.19F WCI  24
ALBION         CLOUDY    30  26  84 SW8       30.15S WCI  22
OMAHA EPPLEY   CLOUDY    31  28  89 S8        30.24F WCI  23
OFFUTT AFB     CLOUDY    30  28  91 S5        30.23F WCI  25
MILLARD        CLOUDY    32  29  90 S3        30.23S FOG
LINCOLN        CLOUDY    31  29  92 S6        30.23F FOG     WCI  25
NEBRASKA CITY  CLOUDY    30  30 100 S3        30.24F FOG
BEATRICE       CLOUDY    30  28  91 S6        30.22F WCI  24
FALLS CITY     CLOUDY    30  27  88 SW5       30.25F WCI  25

...NORTHERN KANSAS...

CITY           SKY/WX    TMP DP  RH WIND       PRES   REMARKS
GOODLAND       CLEAR     25  21  85 W7        30.09F WCI  17
HILL CITY      CLOUDY    32  29  88 E3        30.15F
NORTON         FOG       30  28  93 SW8       30.12F VSB 1   WCI  23
PHILLIPSBURG   CLOUDY    34  30  86 CALM      30.17F
SMITH CENTER   CLOUDY    30  28  93 SE5       30.18F FOG     WCI  25
BELOIT         CLOUDY    28  28 100 SE5       30.20F WCI  23
HAYS           CLOUDY    32  25  74 S3        30.17F
RUSSELL        CLOUDY    31  30  96 S7        30.17F WCI  24
CONCORDIA      CLOUDY    29  28  96 S6        30.21F WCI  23
SALINA         CLOUDY    30  27  88 SE5       30.24F FOG     WCI  25
TOPEKA         CLOUDY    32  29  88 NW5       30.26F WCI  27



USA.gov is the U.S. government's official web portal to all federal, state and local government web resources and services.